This demonstration page uses our WeatherBlox Daily Observations layout. Learn more.

Left ArrowRight Arrow

Hourly Observations for June 28, 2022

Temp ( °F °C ) Dew Point ( °F °C ) Humidity (%) Winds ( mph kmh ) Pressure ( in mb ) Visibility ( mi km ) Precip ( " mm )
12:51 am 00:51 Mostly Clear with Fog 66 18.9 61 16.1 84 84 NNW 5 7 30.02 1017 10 16 0.00 0.00
1:51 am 01:51 Cloudy with Fog 67 19.4 59 15 76 76 N 5 7 30.04 1017 10 16 0.00 0.00
2:51 am 02:51 Mostly Cloudy with Fog 66 18.9 55 12.8 68 68 N 6 9 30.05 1018 10 16 0.00 0.00
3:51 am 03:51 Cloudy with Fog 66 18.9 51 10.6 59 59 N 8 13 30.05 1018 10 16 0.00 0.00
4:51 am 04:51 Cloudy 66 18.9 50 10 56 56 N 3 6 30.06 1018 10 16 0.00 0.00
5:51 am 05:51 Cloudy 65 18.3 50 10 59 59 NNW 6 9 30.09 1019 10 16 0.00 0.00
6:51 am 06:51 Mostly Cloudy 67 19.4 50 10 55 55 NNW 7 11 30.11 1020 10 16 0.00 0.00
7:51 am 07:51 Partly Cloudy 66 18.9 49 9.4 54 54 NNW 9 15 30.13 1020 10 16 0.00 0.00
8:51 am 08:51 Mostly Sunny 69 20.6 50 10 51 51 NNW 9 15 30.14 1021 10 16 0.00 0.00
9:51 am 09:51 Mostly Sunny 70 21.1 48 8.9 46 46 N 10 17 30.14 1021 10 16 0.00 0.00
10:51 am 10:51 Sunny 73 22.8 48 8.9 41 41 NNW 12 19 30.14 1021 10 16 0.00 0.00
11:51 am 11:51 Sunny 74 23.3 49 9.4 41 41 N 7 11 30.14 1021 10 16 0.00 0.00
12:51 pm 12:51 Partly Cloudy 74 23.3 49 9.4 41 41 VRB 3 6 30.14 1021 10 16 0.00 0.00
1:51 pm 13:51 Partly Cloudy 78 25.6 51 10.6 39 39 VRB 6 9 30.14 1021 10 16 0.00 0.00
2:51 pm 14:51 Mostly Cloudy 79 26.1 51 10.6 38 38 NNW 7 11 30.14 1021 10 16 0.00 0.00
3:51 pm 15:51 Partly Cloudy 79 26.1 51 10.6 38 38 NNW 7 11 30.14 1021 10 16 0.00 0.00
4:51 pm 16:51 Mostly Cloudy 79 26.1 50 10 36 36 N 9 15 30.12 1020 10 16 0.00 0.00
5:51 pm 17:51 Partly Cloudy 79 26.1 49 9.4 35 35 ENE 5 7 30.12 1020 10 16 0.00 0.00
6:51 pm 18:51 Sunny 78 25.6 50 10 37 37 N 5 7 30.13 1020 10 16 0.00 0.00
7:51 pm 19:51 Mostly Cloudy 76 24.4 51 10.6 42 42 ENE 3 6 30.14 1021 10 16 0.00 0.00
8:51 pm 20:51 Clear with Light Rain 75 23.9 51 10.6 43 43 Calm 30.15 1021 10 16 0.00 0.00
9:51 pm 21:51 Clear 73 22.8 52 11.1 48 48 ESE 3 6 30.17 1022 10 16 0.00 0.00
10:51 pm 22:51 Clear 70 21.1 56 13.3 61 61 S 3 6 30.18 1022 10 16 0.00 0.00
11:51 pm 23:51 Clear 68 20 56 13.3 65 65 Calm 30.19 1022 10 16 0.00 0.00

Powered by AerisWeather